This demonstration page uses our WeatherBlox Daily Observations layout. Learn more.

Left ArrowRight Arrow

Hourly Observations for October 30, 2020

Temp ( °F °C ) Dew Point ( °F °C ) Humidity (%) Winds ( mph kmh ) Pressure ( in mb ) Visibility ( mi km ) Precip ( " mm )
12:53 am 00:53 Clear 39 3.9 29 -1.7 67 67 SW 5 7 30.13 1020 10 16 0.00 0.00
1:53 am 01:53 Clear 38 3.3 29 -1.7 70 70 SW 6 9 30.12 1020 10 16 0.00 0.00
2:53 am 02:53 Clear 37 2.8 29 -1.7 73 73 SW 5 7 30.12 1020 10 16 0.00 0.00
3:53 am 03:53 Clear 36 2.2 29 -1.7 76 76 SW 6 9 30.13 1020 10 16 0.00 0.00
4:53 am 04:53 Clear 37 2.8 31 -0.6 79 79 W 5 7 30.12 1020 10 16 0.00 0.00
5:53 am 05:53 Clear 38 3.3 32 0 79 79 W 5 7 30.14 1021 10 16 0.00 0.00
6:53 am 06:53 Clear 35 1.7 30 -1.1 82 82 Calm 30.16 1022 10 16 0.00 0.00
7:53 am 07:53 Clear 36 2.2 31 -0.6 82 82 WNW 5 7 30.18 1022 10 16 0.00 0.00
8:53 am 08:53 Sunny 39 3.9 32 0 76 76 WNW 6 9 30.19 1022 10 16 0.00 0.00
9:53 am 09:53 Sunny 50 10 37 2.8 61 61 NNW 7 11 30.21 1023 10 16 0.00 0.00
10:53 am 10:53 Sunny 55 12.8 38 3.3 53 53 NNE 7 11 30.21 1023 10 16 0.00 0.00
11:53 am 11:53 Sunny 61 16.1 39 3.9 44 44 ENE 6 9 30.19 1023 10 16 0.00 0.00
12:53 pm 12:53 Sunny 64 17.8 39 3.9 40 40 ENE 6 9 30.17 1022 10 16 0.00 0.00
1:53 pm 13:53 Sunny 66 18.9 37 2.8 34 34 VRB 3 6 30.14 1021 10 16 0.00 0.00
2:53 pm 14:53 Sunny 67 19.4 37 2.8 33 33 S 6 9 30.11 1020 10 16 0.00 0.00
3:53 pm 15:53 Sunny 69 20.6 37 2.8 31 31 SSE 10 17 30.09 1019 10 16 0.00 0.00
4:53 pm 16:53 Sunny 68 20 37 2.8 32 32 SE 13 20 30.06 1018 10 16 0.00 0.00
5:53 pm 17:53 Sunny 66 18.9 37 2.8 34 34 SE 10 17 30.05 1018 10 16 0.00 0.00
6:53 pm 18:53 Clear 62 16.7 36 2.2 38 38 SSE 7 11 30.05 1018 10 16 0.00 0.00
7:53 pm 19:53 Clear 59 15 35 1.7 41 41 SSE 7 11 30.04 1017 10 16 0.00 0.00
8:53 pm 20:53 Clear 56 13.3 35 1.7 46 46 SE 10 17 30.03 1017 10 16 0.00 0.00
9:53 pm 21:53 Clear 53 11.7 35 1.7 51 51 SSE 12 19 30.01 1016 10 16 0.00 0.00
10:53 pm 22:53 Clear 51 10.6 36 2.2 56 56 SSE 12 19 29.99 1016 10 16 0.00 0.00
11:53 pm 23:53 Clear 50 10 37 2.8 61 61 S 10 17 29.97 1015 10 16 0.00 0.00

Powered by AerisWeather